Language: 


Des rapports , des résumés tant et plus, au choix de chacun....


Données statistiques de la station
Quotidien Rapport Janvier 20, 2017 Unités:  Métrique    Anglais   les deux
« Précédent Jour
Suivant Jour »
Quotidien Hebdomadaire Mensuel Annuel Actuel
  Haut: Bas: Moyen:
Température: 4.8 °C -3.6 °C -0.4 °C
Pt de rosée: -2.8 °C -6.9 °C -5 °C
Humidité: 89 % 0 % 72 %
Vitesse du vent: 15.8 km/h 0.0 km/h 8 km/h
Rafales: 17.2 km/h - -
Vent:- - ENE
Pression: 1034.1 hPa 1030.0 hPa -
Précipitation: 0.0 mm    
Historical Graphs
 
 
Données statistiques pour Janvier 20, 2017
Heure Température Point de rosée Pression Vent Vitesse du vent Refales Humidité Pluie (taux horaire)
00:01 -1.9 °C -5.2 °C 1034.1 hPa NNE 6.1 km/h 9.3 km/h 78 % 0.0 mm
00:06 -1.9 °C -5.3 °C 1034.1 hPa NE 6.9 km/h 9.3 km/h 78 % 0.0 mm
00:11 -2.1 °C -5.4 °C 1034.1 hPa NE 6.4 km/h 6.9 km/h 78 % 0.0 mm
00:16 -2.2 °C -5.3 °C 1034.1 hPa NNE 7.6 km/h 9.0 km/h 79 % 0.0 mm
00:21 -2.2 °C -5.3 °C 1034.1 hPa NNE 6.9 km/h 9.7 km/h 79 % 0.0 mm
00:26 -2.3 °C -5.4 °C 1034.1 hPa North 8.7 km/h 9.7 km/h 79 % 0.0 mm
00:31 -2.3 °C -5.2 °C 1034.1 hPa North 8.7 km/h 10.5 km/h 80 % 0.0 mm
00:36 -2.2 °C -5.2 °C 1034.1 hPa NE 9.3 km/h 10.5 km/h 80 % 0.0 mm
00:41 -2.2 °C -5.2 °C 1033.1 hPa NNE 11.9 km/h 11.9 km/h 80 % 0.0 mm
00:46 -2.2 °C -5.2 °C 1033.1 hPa NE 10.5 km/h 11.9 km/h 80 % 0.0 mm
00:51 -2.2 °C -5.2 °C 1033.1 hPa NNE 6.4 km/h 11.6 km/h 80 % 0.0 mm
00:56 -2.2 °C -5.0 °C 1033.1 hPa NNE 6.9 km/h 10.5 km/h 81 % 0.0 mm
01:01 -2.3 °C -5.2 °C 1033.1 hPa NE 5.8 km/h 10.1 km/h 80 % 0.0 mm
01:06 -2.3 °C -5.1 °C 1033.1 hPa NNE 7.2 km/h 9.7 km/h 81 % 0.0 mm
01:11 -2.3 °C -5.2 °C 1033.1 hPa North 6.4 km/h 9.7 km/h 81 % 0.0 mm
01:16 -2.3 °C -5.2 °C 1033.1 hPa North 6.4 km/h 11.6 km/h 81 % 0.0 mm
01:21 -2.4 °C -5.3 °C 1033.1 hPa NNE 7.9 km/h 11.6 km/h 81 % 0.0 mm
01:26 -2.4 °C -5.3 °C 1033.1 hPa NE 6.4 km/h 10.1 km/h 81 % 0.0 mm
01:31 -2.6 °C -5.2 °C 1033.1 hPa NNE 5.5 km/h 10.1 km/h 82 % 0.0 mm
01:36 -2.6 °C -5.2 °C 1033.1 hPa North 8.7 km/h 9.0 km/h 82 % 0.0 mm
01:41 -2.7 °C -5.3 °C 1033.1 hPa NE 5.8 km/h 9.0 km/h 82 % 0.0 mm
01:46 -2.7 °C -5.3 °C 1033.1 hPa NNE 7.9 km/h 9.7 km/h 82 % 0.0 mm
01:51 -2.7 °C -5.3 °C 1033.1 hPa NNE 9.0 km/h 10.5 km/h 82 % 0.0 mm
01:56 -2.7 °C -5.1 °C 1032.1 hPa NNE 9.7 km/h 10.5 km/h 83 % 0.0 mm
02:02 0.0 °C -5.1 °C 1032.1 hPa Calm     0 % 0.0 mm
02:07 -2.7 °C -5.1 °C 1033.1 hPa North 8.7 km/h 11.1 km/h 83 % 0.0 mm
02:12 -2.7 °C -5.2 °C 1033.1 hPa NE 7.9 km/h 11.6 km/h 83 % 0.0 mm
02:17 -2.7 °C -5.2 °C 1033.1 hPa NNE 6.9 km/h 11.6 km/h 83 % 0.0 mm
02:22 -2.7 °C -5.1 °C 1033.1 hPa NNE 7.9 km/h 10.5 km/h 83 % 0.0 mm
02:27 -2.7 °C -5.0 °C 1033.1 hPa NNE 10.5 km/h 10.5 km/h 84 % 0.0 mm
02:32 -2.7 °C -5.0 °C 1033.1 hPa NE 9.7 km/h 12.2 km/h 84 % 0.0 mm
02:37 -2.7 °C -5.0 °C 1033.1 hPa NNE 11.6 km/h 12.6 km/h 84 % 0.0 mm
02:42 -2.7 °C -5.0 °C 1033.1 hPa NE 9.3 km/h 12.6 km/h 84 % 0.0 mm
02:47 -2.7 °C -5.0 °C 1033.1 hPa NE 9.7 km/h 11.9 km/h 84 % 0.0 mm
02:52 -2.7 °C -5.0 °C 1033.1 hPa North 7.9 km/h 14.0 km/h 84 % 0.0 mm
02:57 -2.7 °C -5.0 °C 1033.1 hPa NE 10.1 km/h 14.0 km/h 84 % 0.0 mm
03:02 -2.7 °C -5.1 °C 1033.1 hPa NNE 9.3 km/h 13.0 km/h 84 % 0.0 mm
03:07 -2.7 °C -5.1 °C 1032.1 hPa North 10.5 km/h 13.0 km/h 84 % 0.0 mm
03:12 -2.7 °C -5.1 °C 1032.1 hPa NE 4.7 km/h 10.5 km/h 84 % 0.0 mm
03:17 -2.7 °C -5.1 °C 1032.1 hPa NNE 7.9 km/h 9.7 km/h 84 % 0.0 mm
03:22 -2.7 °C -5.1 °C 1033.1 hPa North 9.0 km/h 9.7 km/h 84 % 0.0 mm
03:27 -2.7 °C -5.1 °C 1033.1 hPa NNE 6.9 km/h 10.1 km/h 84 % 0.0 mm
03:32 -2.7 °C -5.1 °C 1033.1 hPa NNE 9.7 km/h 10.1 km/h 84 % 0.0 mm
03:37 -2.7 °C -5.1 °C 1033.1 hPa NNE 10.5 km/h 10.8 km/h 84 % 0.0 mm
03:42 -2.7 °C -5.1 °C 1033.1 hPa NNE 6.9 km/h 11.9 km/h 84 % 0.0 mm
03:47 -2.7 °C -5.1 °C 1033.1 hPa NNE 9.7 km/h 11.9 km/h 84 % 0.0 mm
03:52 -2.8 °C -5.2 °C 1033.1 hPa NE 8.7 km/h 11.9 km/h 84 % 0.0 mm
03:57 -2.8 °C -5.2 °C 1033.1 hPa NE 9.0 km/h 10.5 km/h 84 % 0.0 mm
04:02 -2.7 °C -5.1 °C 1033.1 hPa NE 10.5 km/h 11.6 km/h 84 % 0.0 mm
04:07 -2.7 °C -4.9 °C 1033.1 hPa NE 6.9 km/h 11.9 km/h 85 % 0.0 mm
04:12 -2.7 °C -4.9 °C 1033.1 hPa NE 9.0 km/h 11.9 km/h 85 % 0.0 mm
04:17 -2.7 °C -4.9 °C 1033.1 hPa NE 5.8 km/h 10.5 km/h 85 % 0.0 mm
04:22 -2.7 °C -4.9 °C 1033.1 hPa NE 9.0 km/h 10.8 km/h 85 % 0.0 mm
04:27 -2.7 °C -4.8 °C 1033.1 hPa NE 5.8 km/h 10.8 km/h 85 % 0.0 mm
04:32 -2.7 °C -4.8 °C 1033.1 hPa NE 6.9 km/h 10.5 km/h 85 % 0.0 mm
04:37 -2.7 °C -4.8 °C 1033.1 hPa NE 8.7 km/h 11.6 km/h 85 % 0.0 mm
04:42 -2.7 °C -4.8 °C 1033.1 hPa NE 6.4 km/h 11.6 km/h 85 % 0.0 mm
04:47 -2.7 °C -4.8 °C 1033.1 hPa ENE 7.9 km/h 10.5 km/h 85 % 0.0 mm
04:52 -2.7 °C -4.8 °C 1033.1 hPa NNE 6.9 km/h 9.7 km/h 85 % 0.0 mm
04:57 -2.7 °C -4.9 °C 1033.1 hPa NNE 6.9 km/h 9.3 km/h 85 % 0.0 mm
05:02 -2.7 °C -4.9 °C 1033.1 hPa NE 4.7 km/h 12.2 km/h 85 % 0.0 mm
05:07 -2.7 °C -4.9 °C 1033.1 hPa NE 8.7 km/h 12.2 km/h 85 % 0.0 mm
05:12 -2.7 °C -4.7 °C 1033.1 hPa NE 9.0 km/h 10.1 km/h 86 % 0.0 mm
05:17 -2.6 °C -4.6 °C 1033.1 hPa NNE 9.0 km/h 12.2 km/h 86 % 0.0 mm
05:22 -2.6 °C -4.6 °C 1032.1 hPa ENE 8.7 km/h 12.2 km/h 86 % 0.0 mm
05:27 -2.6 °C -4.6 °C 1032.1 hPa NNE 11.9 km/h 14.0 km/h 86 % 0.0 mm
05:32 -2.6 °C -4.6 °C 1032.1 hPa NE 9.7 km/h 14.0 km/h 86 % 0.0 mm
05:37 -2.6 °C -4.6 °C 1032.1 hPa NE 9.3 km/h 12.2 km/h 86 % 0.0 mm
05:42 -2.4 °C -4.4 °C 1032.1 hPa NNE 9.0 km/h 12.6 km/h 86 % 0.0 mm
05:47 -2.4 °C -4.4 °C 1032.1 hPa NNE 9.0 km/h 13.7 km/h 86 % 0.0 mm
05:52 -2.4 °C -4.4 °C 1032.1 hPa NE 8.7 km/h 13.7 km/h 86 % 0.0 mm
05:57 -2.6 °C -4.6 °C 1032.1 hPa NNE 10.1 km/h 13.7 km/h 86 % 0.0 mm
06:02 -2.6 °C -4.6 °C 1032.1 hPa NE 9.7 km/h 12.6 km/h 86 % 0.0 mm
06:07 -2.7 °C -4.8 °C 1032.1 hPa NE 11.6 km/h 11.6 km/h 86 % 0.0 mm
06:12 -2.7 °C -4.8 °C 1032.1 hPa ENE 6.4 km/h 11.6 km/h 86 % 0.0 mm
06:17 -2.7 °C -4.8 °C 1032.1 hPa NE 6.1 km/h 13.0 km/h 86 % 0.0 mm
06:22 -2.7 °C -4.8 °C 1032.1 hPa NE 8.7 km/h 13.0 km/h 86 % 0.0 mm
06:28 -2.7 °C -4.8 °C 1032.1 hPa ENE 9.7 km/h 10.8 km/h 86 % 0.0 mm
06:32 -2.8 °C -4.8 °C 1032.1 hPa NE 7.9 km/h 10.5 km/h 86 % 0.0 mm
06:37 -2.9 °C -4.8 °C 1032.1 hPa NE 7.9 km/h 10.5 km/h 87 % 0.0 mm
06:43 -2.9 °C -4.8 °C 1032.1 hPa ENE 8.7 km/h 10.8 km/h 87 % 0.0 mm
06:48 -2.8 °C -4.7 °C 1032.1 hPa NE 8.7 km/h 12.2 km/h 87 % 0.0 mm
06:53 -2.8 °C -4.7 °C 1032.1 hPa NE 6.9 km/h 12.2 km/h 87 % 0.0 mm
06:58 -2.7 °C -4.6 °C 1032.1 hPa NE 12.2 km/h 12.2 km/h 87 % 0.0 mm
07:03 -2.7 °C -4.6 °C 1032.1 hPa NE 8.7 km/h 12.2 km/h 87 % 0.0 mm
07:08 -2.7 °C -4.6 °C 1032.1 hPa NE 8.7 km/h 12.6 km/h 87 % 0.0 mm
07:13 -2.8 °C -4.7 °C 1032.1 hPa NNE 7.9 km/h 12.6 km/h 87 % 0.0 mm
07:18 -2.9 °C -4.8 °C 1032.1 hPa North 6.1 km/h 9.3 km/h 87 % 0.0 mm
07:23 -3.1 °C -5.0 °C 1032.1 hPa North 6.1 km/h 8.7 km/h 87 % 0.0 mm
07:28 -3.1 °C -4.9 °C 1032.1 hPa ENE 10.5 km/h 10.5 km/h 87 % 0.0 mm
07:33 -3.1 °C -4.7 °C 1032.1 hPa NE 7.6 km/h 12.6 km/h 88 % 0.0 mm
07:38 -3.1 °C -4.7 °C 1032.1 hPa NE 6.1 km/h 12.6 km/h 88 % 0.0 mm
07:43 -3.1 °C -4.7 °C 1032.1 hPa ENE 7.9 km/h 9.0 km/h 88 % 0.0 mm
07:48 -3.1 °C -4.8 °C 1032.1 hPa NE 6.1 km/h 9.0 km/h 88 % 0.0 mm
07:53 -3.2 °C -5.1 °C 1032.1 hPa NE 6.4 km/h 9.3 km/h 87 % 0.0 mm
07:58 -3.3 °C -5.2 °C 1032.1 hPa NNE 6.4 km/h 9.3 km/h 87 % 0.0 mm
08:03 -3.4 °C -5.3 °C 1032.1 hPa NE 6.4 km/h 9.0 km/h 87 % 0.0 mm
08:08 -3.6 °C -5.4 °C 1032.1 hPa NE 6.4 km/h 7.9 km/h 87 % 0.0 mm
08:13 -3.6 °C -5.2 °C 1032.1 hPa NE 6.1 km/h 7.9 km/h 88 % 0.0 mm
08:18 -3.6 °C -5.2 °C 1032.1 hPa ENE 6.4 km/h 7.9 km/h 88 % 0.0 mm
08:23 -3.6 °C -5.2 °C 1032.1 hPa ENE 5.5 km/h 9.7 km/h 88 % 0.0 mm
08:28 -3.6 °C -5.2 °C 1032.1 hPa North 6.9 km/h 10.5 km/h 88 % 0.0 mm
08:33 -3.6 °C -5.2 °C 1032.1 hPa NE 7.9 km/h 11.6 km/h 88 % 0.0 mm
08:38 -3.4 °C -5.1 °C 1033.1 hPa ENE 8.7 km/h 11.6 km/h 88 % 0.0 mm
08:43 -3.4 °C -5.0 °C 1033.1 hPa NNE 11.6 km/h 11.6 km/h 89 % 0.0 mm
08:48 -3.4 °C -5.0 °C 1033.1 hPa NNE 12.2 km/h 12.6 km/h 89 % 0.0 mm
08:53 -3.4 °C -5.0 °C 1032.1 hPa NE 10.1 km/h 12.6 km/h 89 % 0.0 mm
08:58 -3.4 °C -5.0 °C 1032.1 hPa North 7.9 km/h 13.0 km/h 89 % 0.0 mm
09:03 -3.3 °C -4.9 °C 1032.1 hPa NE 10.1 km/h 13.0 km/h 89 % 0.0 mm
09:08 -3.2 °C -4.8 °C 1032.1 hPa NE 10.5 km/h 12.6 km/h 89 % 0.0 mm
09:13 -3.2 °C -4.8 °C 1032.1 hPa NE 10.5 km/h 13.0 km/h 89 % 0.0 mm
09:18 -3.1 °C -4.7 °C 1032.1 hPa NE 10.5 km/h 13.0 km/h 89 % 0.0 mm
09:23 -3.1 °C -4.6 °C 1032.1 hPa ENE 7.9 km/h 10.5 km/h 89 % 0.0 mm
09:28 -2.8 °C -4.4 °C 1032.1 hPa NNE 8.7 km/h 12.2 km/h 89 % 0.0 mm
09:33 -2.7 °C -4.3 °C 1032.1 hPa NNE 9.7 km/h 12.2 km/h 89 % 0.0 mm
09:38 -2.7 °C -4.2 °C 1032.1 hPa NNE 5.5 km/h 12.2 km/h 89 % 0.0 mm
09:43 -2.4 °C -4.0 °C 1032.1 hPa ENE 6.9 km/h 12.2 km/h 89 % 0.0 mm
09:48 -2.3 °C -3.8 °C 1032.1 hPa NE 5.8 km/h 10.5 km/h 89 % 0.0 mm
09:53 -1.9 °C -3.6 °C 1033.1 hPa NE 8.7 km/h 10.5 km/h 89 % 0.0 mm
09:58 -1.8 °C -3.5 °C 1033.1 hPa NE 7.9 km/h 10.1 km/h 88 % 0.0 mm
10:03 -1.6 °C -3.3 °C 1033.1 hPa ENE 8.7 km/h 10.1 km/h 88 % 0.0 mm
10:08 -1.4 °C -3.3 °C 1033.1 hPa ENE 5.8 km/h 10.5 km/h 87 % 0.0 mm
10:13 -1.1 °C -2.9 °C 1033.1 hPa NE 6.1 km/h 10.5 km/h 87 % 0.0 mm
10:18 -1.0 °C -3.0 °C 1033.1 hPa ENE 9.0 km/h 9.0 km/h 86 % 0.0 mm
10:23 -0.7 °C -2.9 °C 1033.1 hPa NE 6.4 km/h 9.3 km/h 85 % 0.0 mm
10:28 -0.5 °C -2.9 °C 1033.1 hPa NE 6.4 km/h 9.3 km/h 84 % 0.0 mm
10:33 -0.4 °C -2.9 °C 1033.1 hPa NE 6.4 km/h 9.7 km/h 83 % 0.0 mm
10:38 -0.2 °C -2.9 °C 1033.1 hPa ENE 9.0 km/h 10.1 km/h 82 % 0.0 mm
10:43 0.0 °C -2.9 °C 1033.1 hPa ENE 9.0 km/h 10.1 km/h 81 % 0.0 mm
10:48 0.2 °C -2.8 °C 1033.1 hPa NE 6.9 km/h 11.6 km/h 80 % 0.0 mm
10:53 0.2 °C -3.0 °C 1033.1 hPa NE 9.0 km/h 11.6 km/h 79 % 0.0 mm
10:58 0.4 °C -2.8 °C 1033.1 hPa ENE 9.3 km/h 10.5 km/h 79 % 0.0 mm
11:03 0.6 °C -2.8 °C 1033.1 hPa East 9.0 km/h 10.5 km/h 78 % 0.0 mm
11:08 0.7 °C -3.1 °C 1033.1 hPa NE 6.1 km/h 11.1 km/h 76 % 0.0 mm
11:13 1.0 °C -2.9 °C 1033.1 hPa ENE 6.4 km/h 11.1 km/h 75 % 0.0 mm
11:18 1.1 °C -3.1 °C 1033.1 hPa NE 9.7 km/h 11.6 km/h 74 % 0.0 mm
11:23 1.1 °C -3.2 °C 1033.1 hPa NE 10.5 km/h 11.6 km/h 73 % 0.0 mm
11:28 1.3 °C -3.1 °C 1033.1 hPa ENE 8.7 km/h 10.5 km/h 73 % 0.0 mm
11:33 1.4 °C -3.1 °C 1033.1 hPa ENE 6.1 km/h 10.5 km/h 72 % 0.0 mm
11:38 1.6 °C -2.9 °C 1032.1 hPa ENE 9.7 km/h 10.5 km/h 72 % 0.0 mm
11:43 1.8 °C -2.9 °C 1032.1 hPa ENE 6.1 km/h 10.5 km/h 71 % 0.0 mm
11:48 1.9 °C -2.8 °C 1032.1 hPa ENE 10.5 km/h 13.0 km/h 71 % 0.0 mm
11:53 2.1 °C -3.1 °C 1032.1 hPa ENE 9.7 km/h 13.0 km/h 69 % 0.0 mm
11:58 2.1 °C -3.2 °C 1032.1 hPa NE 9.3 km/h 12.2 km/h 68 % 0.0 mm
12:03 2.3 °C -3.2 °C 1032.1 hPa NE 9.3 km/h 13.0 km/h 67 % 0.0 mm
12:08 2.3 °C -3.2 °C 1031.0 hPa ENE 7.9 km/h 13.0 km/h 67 % 0.0 mm
12:13 2.6 °C -3.4 °C 1031.0 hPa NE 9.3 km/h 13.0 km/h 65 % 0.0 mm
12:18 2.6 °C -3.6 °C 1031.0 hPa ENE 9.3 km/h 13.0 km/h 64 % 0.0 mm
12:23 2.6 °C -4.0 °C 1031.0 hPa East 10.5 km/h 13.7 km/h 62 % 0.0 mm
12:28 2.7 °C -3.8 °C 1031.0 hPa East 10.5 km/h 13.7 km/h 62 % 0.0 mm
12:33 2.8 °C -3.9 °C 1031.0 hPa ENE 10.1 km/h 12.2 km/h 61 % 0.0 mm
12:38 3.1 °C -4.2 °C 1031.0 hPa ENE 5.5 km/h 14.0 km/h 59 % 0.0 mm
12:43 3.1 °C -4.1 °C 1031.0 hPa East 11.1 km/h 15.8 km/h 59 % 0.0 mm
12:48 3.2 °C -4.5 °C 1031.0 hPa ENE 13.7 km/h 15.8 km/h 57 % 0.0 mm
12:53 3.3 °C -4.4 °C 1031.0 hPa ENE 9.0 km/h 14.0 km/h 57 % 0.0 mm
12:58 3.6 °C -4.2 °C 1031.0 hPa NNE 6.9 km/h 14.0 km/h 57 % 0.0 mm
13:03 3.6 °C -4.1 °C 1031.0 hPa East 8.7 km/h 12.6 km/h 57 % 0.0 mm
13:08 3.8 °C -3.9 °C 1031.0 hPa ENE 9.3 km/h 11.9 km/h 57 % 0.0 mm
13:13 4.0 °C -3.7 °C 1031.0 hPa NE 9.7 km/h 11.9 km/h 57 % 0.0 mm
13:18 4.1 °C -3.7 °C 1031.0 hPa NE 9.7 km/h 12.6 km/h 57 % 0.0 mm
13:23 4.0 °C -4.2 °C 1031.0 hPa ENE 11.9 km/h 13.7 km/h 55 % 0.0 mm
13:28 4.0 °C -4.4 °C 1031.0 hPa ENE 11.9 km/h 14.0 km/h 54 % 0.0 mm
13:33 4.0 °C -4.4 °C 1031.0 hPa ENE 15.4 km/h 16.3 km/h 54 % 0.0 mm
13:38 4.2 °C -4.3 °C 1031.0 hPa ENE 10.5 km/h 16.3 km/h 54 % 0.0 mm
13:43 4.2 °C -4.3 °C 1031.0 hPa ENE 13.7 km/h 15.4 km/h 54 % 0.0 mm
13:48 4.3 °C -4.2 °C 1031.0 hPa NE 11.9 km/h 13.7 km/h 54 % 0.0 mm
13:53 4.3 °C -4.4 °C 1031.0 hPa ENE 9.3 km/h 15.4 km/h 53 % 0.0 mm
13:58 4.5 °C -4.3 °C 1031.0 hPa ENE 9.3 km/h 15.8 km/h 53 % 0.0 mm
14:03 4.5 °C -4.3 °C 1031.0 hPa NNE 12.2 km/h 15.8 km/h 53 % 0.0 mm
14:08 4.3 °C -4.4 °C 1030.0 hPa NE 15.4 km/h 16.9 km/h 53 % 0.0 mm
14:13 4.2 °C -4.6 °C 1030.0 hPa NE 15.8 km/h 16.9 km/h 53 % 0.0 mm
14:18 4.2 °C -4.6 °C 1030.0 hPa NE 9.7 km/h 17.2 km/h 53 % 0.0 mm
14:23 4.3 °C -4.2 °C 1030.0 hPa ENE 10.5 km/h 17.2 km/h 54 % 0.0 mm
14:28 4.4 °C -4.1 °C 1030.0 hPa NE 9.7 km/h 14.0 km/h 54 % 0.0 mm
14:33 4.5 °C -4.3 °C 1030.0 hPa NE 7.9 km/h 14.0 km/h 53 % 0.0 mm
14:38 4.5 °C -4.3 °C 1030.0 hPa ENE 10.1 km/h 12.2 km/h 53 % 0.0 mm
14:43 4.5 °C -4.3 °C 1030.0 hPa NE 11.9 km/h 12.2 km/h 53 % 0.0 mm
14:48 4.5 °C -4.5 °C 1030.0 hPa NE 9.7 km/h 13.7 km/h 52 % 0.0 mm
14:53 4.5 °C -4.5 °C 1030.0 hPa NE 10.5 km/h 13.7 km/h 52 % 0.0 mm
14:58 4.6 °C -4.4 °C 1030.0 hPa ENE 9.3 km/h 12.6 km/h 52 % 0.0 mm
15:04 4.6 °C -4.2 °C 1030.0 hPa ENE 9.0 km/h 12.6 km/h 53 % 0.0 mm
15:09 4.7 °C -4.1 °C 1030.0 hPa ENE 10.5 km/h 10.5 km/h 53 % 0.0 mm
15:14 4.7 °C -4.3 °C 1030.0 hPa East 6.4 km/h 10.5 km/h 52 % 0.0 mm
15:19 4.8 °C -4.2 °C 1030.0 hPa NE 6.4 km/h 10.5 km/h 52 % 0.0 mm
15:24 4.7 °C -4.3 °C 1030.0 hPa ENE 6.9 km/h 10.8 km/h 52 % 0.0 mm
15:29 4.8 °C -4.2 °C 1030.0 hPa NE 6.9 km/h 10.8 km/h 52 % 0.0 mm
15:34 4.8 °C -4.2 °C 1030.0 hPa NE 7.6 km/h 10.1 km/h 52 % 0.0 mm
15:39 4.8 °C -4.2 °C 1030.0 hPa NE 6.1 km/h 10.1 km/h 52 % 0.0 mm
15:44 4.7 °C -4.3 °C 1030.0 hPa NE 8.7 km/h 10.1 km/h 52 % 0.0 mm
15:49 4.7 °C -4.3 °C 1030.0 hPa NE 6.1 km/h 10.1 km/h 52 % 0.0 mm
15:54 4.7 °C -4.6 °C 1030.0 hPa ENE 6.1 km/h 10.8 km/h 51 % 0.0 mm
15:59 4.6 °C -4.7 °C 1030.0 hPa East 6.1 km/h 10.8 km/h 51 % 0.0 mm
16:04 4.5 °C -4.8 °C 1030.0 hPa ENE 9.7 km/h 11.6 km/h 51 % 0.0 mm
16:09 4.5 °C -4.8 °C 1030.0 hPa East 7.9 km/h 11.6 km/h 51 % 0.0 mm
16:39 3.3 °C -5.8 °C 1030.0 hPa ENE 6.4 km/h 10.5 km/h 51 % 0.0 mm
16:44 3.2 °C -5.9 °C 1030.0 hPa East 6.1 km/h 10.5 km/h 51 % 0.0 mm
16:49 3.1 °C -6.1 °C 1030.0 hPa ENE 10.1 km/h 10.5 km/h 51 % 0.0 mm
16:54 2.9 °C -5.9 °C 1030.0 hPa NE 5.0 km/h 10.5 km/h 52 % 0.0 mm
16:59 2.7 °C -6.2 °C 1030.0 hPa ENE 6.1 km/h 9.0 km/h 52 % 0.0 mm
17:04 2.6 °C -6.3 °C 1030.0 hPa ENE 5.5 km/h 9.3 km/h 52 % 0.0 mm
17:09 2.3 °C -6.3 °C 1030.0 hPa ENE 6.4 km/h 9.3 km/h 53 % 0.0 mm
17:14 2.2 °C -6.4 °C 1030.0 hPa ENE 5.5 km/h 7.6 km/h 53 % 0.0 mm
17:19 2.1 °C -6.6 °C 1030.0 hPa NE 10.5 km/h 10.5 km/h 53 % 0.0 mm
17:24 1.9 °C -6.6 °C 1030.0 hPa NE 8.7 km/h 10.5 km/h 53 % 0.0 mm
17:29 1.9 °C -6.6 °C 1030.0 hPa ENE 6.9 km/h 10.5 km/h 53 % 0.0 mm
17:34 1.9 °C -6.4 °C 1030.0 hPa ENE 6.9 km/h 9.7 km/h 54 % 0.0 mm
17:44 1.7 °C -6.7 °C 1030.0 hPa ENE 5.8 km/h 9.3 km/h 54 % 0.0 mm
17:49 1.4 °C -6.7 °C 1030.0 hPa NE 5.8 km/h 9.3 km/h 55 % 0.0 mm
17:54 1.1 °C -6.9 °C 1030.0 hPa NNE 8.7 km/h 8.7 km/h 55 % 0.0 mm
17:59 1.1 °C -6.7 °C 1030.0 hPa NNE 9.0 km/h 9.7 km/h 56 % 0.0 mm
18:04 1.2 °C -6.7 °C 1030.0 hPa NE 9.0 km/h 10.1 km/h 56 % 0.0 mm
18:09 1.4 °C -6.4 °C 1030.0 hPa ENE 10.1 km/h 10.8 km/h 56 % 0.0 mm
18:14 1.3 °C -6.6 °C 1030.0 hPa NNE 8.7 km/h 10.8 km/h 56 % 0.0 mm
18:19 1.2 °C -6.7 °C 1030.0 hPa NE 6.1 km/h 10.1 km/h 56 % 0.0 mm
18:24 1.0 °C -6.6 °C 1030.0 hPa NNE 7.9 km/h 8.7 km/h 57 % 0.0 mm
18:29 0.8 °C -6.6 °C 1030.0 hPa NE 6.4 km/h 7.9 km/h 58 % 0.0 mm
18:34 0.7 °C -6.7 °C 1030.0 hPa NNE 6.1 km/h 9.0 km/h 58 % 0.0 mm
18:39 0.7 °C -6.4 °C 1030.0 hPa NNE 6.4 km/h 9.3 km/h 59 % 0.0 mm
18:44 0.6 °C -6.1 °C 1030.0 hPa NNE 5.5 km/h 9.3 km/h 61 % 0.0 mm
18:49 0.4 °C -6.3 °C 1030.0 hPa NNE 6.1 km/h 9.0 km/h 61 % 0.0 mm
18:54 0.3 °C -6.2 °C 1030.0 hPa NNE 5.0 km/h 7.9 km/h 62 % 0.0 mm
18:59 0.1 °C -6.1 °C 1030.0 hPa NNE 7.6 km/h 7.9 km/h 63 % 0.0 mm
19:04 -0.1 °C -5.7 °C 1030.0 hPa NE 5.0 km/h 7.9 km/h 66 % 0.0 mm
19:09 -0.2 °C -5.8 °C 1030.0 hPa NNE 5.8 km/h 7.9 km/h 66 % 0.0 mm
19:14 -0.4 °C -6.0 °C 1030.0 hPa NE 6.4 km/h 7.6 km/h 66 % 0.0 mm
19:19 -0.4 °C -5.8 °C 1030.0 hPa NNE 5.0 km/h 7.6 km/h 67 % 0.0 mm
19:24 -0.5 °C -5.9 °C 1030.0 hPa NE 6.1 km/h 6.9 km/h 67 % 0.0 mm
19:29 -0.5 °C -5.7 °C 1030.0 hPa NE 6.4 km/h 7.2 km/h 68 % 0.0 mm
19:34 -0.5 °C -5.7 °C 1030.0 hPa NE 9.3 km/h 9.3 km/h 68 % 0.0 mm
19:39 -0.4 °C -5.2 °C 1030.0 hPa ENE 9.3 km/h 10.5 km/h 70 % 0.0 mm
19:44 -0.1 °C -4.6 °C 1030.0 hPa NE 12.2 km/h 12.2 km/h 72 % 0.0 mm
19:49 0.1 °C -4.3 °C 1030.0 hPa NE 11.6 km/h 12.2 km/h 72 % 0.0 mm
19:54 0.3 °C -4.3 °C 1030.0 hPa ENE 9.3 km/h 12.6 km/h 71 % 0.0 mm
19:59 0.3 °C -4.3 °C 1030.0 hPa NE 9.3 km/h 12.6 km/h 71 % 0.0 mm
20:04 0.4 °C -4.4 °C 1030.0 hPa NE 9.0 km/h 11.9 km/h 70 % 0.0 mm
20:09 0.4 °C -4.6 °C 1030.0 hPa ENE 8.7 km/h 11.9 km/h 69 % 0.0 mm
20:14 0.4 °C -4.8 °C 1030.0 hPa NE 8.7 km/h 11.6 km/h 68 % 0.0 mm
20:19 0.4 °C -4.8 °C 1030.0 hPa ENE 9.0 km/h 11.6 km/h 68 % 0.0 mm
20:24 0.3 °C -5.1 °C 1030.0 hPa ENE 9.3 km/h 9.7 km/h 67 % 0.0 mm
20:29 0.2 °C -5.2 °C 1030.0 hPa East 8.7 km/h 9.3 km/h 67 % 0.0 mm
20:34 0.1 °C -5.3 °C 1030.0 hPa ENE 6.9 km/h 9.0 km/h 67 % 0.0 mm
20:39 0.0 °C -5.4 °C 1030.0 hPa NE 6.1 km/h 9.0 km/h 67 % 0.0 mm
20:44 0.0 °C -5.4 °C 1030.0 hPa ENE 9.0 km/h 9.0 km/h 67 % 0.0 mm
20:49 0.0 °C -5.4 °C 1030.0 hPa ENE 6.9 km/h 9.0 km/h 67 % 0.0 mm
20:54 -0.1 °C -5.5 °C 1030.0 hPa East 5.8 km/h 8.7 km/h 67 % 0.0 mm
20:59 -0.2 °C -5.6 °C 1030.0 hPa NE 6.1 km/h 7.6 km/h 67 % 0.0 mm
21:04 -0.2 °C -5.6 °C 1030.0 hPa ENE 5.5 km/h 7.9 km/h 67 % 0.0 mm
21:09 -0.3 °C -5.9 °C 1030.0 hPa ENE 5.0 km/h 7.9 km/h 66 % 0.0 mm
21:14 -0.3 °C -5.9 °C 1030.0 hPa ENE 5.8 km/h 7.6 km/h 66 % 0.0 mm
21:19 -0.3 °C -5.9 °C 1030.0 hPa ENE 5.5 km/h 7.6 km/h 66 % 0.0 mm
21:24 -0.4 °C -6.0 °C 1030.0 hPa ENE 5.8 km/h 7.6 km/h 66 % 0.0 mm
21:29 -0.4 °C -6.0 °C 1030.0 hPa NE 6.9 km/h 6.9 km/h 66 % 0.0 mm
21:34 -0.4 °C -6.0 °C 1030.0 hPa East 8.7 km/h 9.3 km/h 66 % 0.0 mm
21:39 -0.4 °C -6.0 °C 1030.0 hPa East 6.9 km/h 9.3 km/h 66 % 0.0 mm
21:44 -0.5 °C -6.1 °C 1030.0 hPa ENE 5.5 km/h 7.9 km/h 66 % 0.0 mm
21:49 -0.6 °C -6.2 °C 1030.0 hPa ENE 6.1 km/h 6.9 km/h 66 % 0.0 mm
21:54 -0.6 °C -6.2 °C 1030.0 hPa ENE 6.1 km/h 6.9 km/h 66 % 0.0 mm
21:59 -0.7 °C -6.3 °C 1030.0 hPa ENE 5.8 km/h 6.9 km/h 66 % 0.0 mm
22:04 -0.8 °C -6.3 °C 1030.0 hPa East 6.4 km/h 7.2 km/h 66 % 0.0 mm
22:09 -0.9 °C -6.4 °C 1030.0 hPa ENE 5.0 km/h 7.2 km/h 66 % 0.0 mm
22:14 -1.0 °C -6.6 °C 1030.0 hPa ENE 5.0 km/h 6.4 km/h 66 % 0.0 mm
22:19 -1.0 °C -6.6 °C 1030.0 hPa ENE 5.8 km/h 6.4 km/h 66 % 0.0 mm
22:24 -1.0 °C -6.6 °C 1030.0 hPa ENE 6.9 km/h 6.9 km/h 66 % 0.0 mm
22:29 -1.1 °C -6.4 °C 1030.0 hPa ENE 5.5 km/h 7.6 km/h 67 % 0.0 mm
22:34 -1.2 °C -6.5 °C 1030.0 hPa East 4.7 km/h 7.6 km/h 67 % 0.0 mm
22:39 -1.3 °C -6.6 °C 1030.0 hPa ENE 4.3 km/h 6.4 km/h 67 % 0.0 mm
22:44 -1.4 °C -6.7 °C 1030.0 hPa ENE 5.8 km/h 6.4 km/h 67 % 0.0 mm
22:49 -1.4 °C -6.8 °C 1030.0 hPa ENE 5.0 km/h 6.4 km/h 67 % 0.0 mm
22:54 -1.6 °C -6.7 °C 1030.0 hPa ENE 5.8 km/h 6.1 km/h 68 % 0.0 mm
22:59 -1.6 °C -6.7 °C 1030.0 hPa East 5.5 km/h 6.9 km/h 68 % 0.0 mm
23:04 -1.6 °C -6.7 °C 1030.0 hPa ENE 5.8 km/h 6.9 km/h 68 % 0.0 mm
23:09 -1.4 °C -6.6 °C 1030.0 hPa East 5.5 km/h 7.9 km/h 68 % 0.0 mm
23:14 -1.4 °C -6.5 °C 1030.0 hPa ENE 5.5 km/h 7.9 km/h 68 % 0.0 mm
23:19 -1.4 °C -6.5 °C 1030.0 hPa ENE 5.8 km/h 7.6 km/h 68 % 0.0 mm
23:24 -1.4 °C -6.3 °C 1030.0 hPa ENE 7.6 km/h 8.7 km/h 69 % 0.0 mm
23:29 -1.4 °C -6.3 °C 1030.0 hPa ENE 5.5 km/h 8.7 km/h 69 % 0.0 mm
23:34 -1.4 °C -6.3 °C 1030.0 hPa ENE 6.1 km/h 7.9 km/h 69 % 0.0 mm
23:39 -1.4 °C -6.3 °C 1030.0 hPa ENE 6.4 km/h 9.3 km/h 69 % 0.0 mm
23:44 -1.4 °C -6.4 °C 1030.0 hPa ENE 5.0 km/h 9.3 km/h 69 % 0.0 mm
23:49 -1.6 °C -6.5 °C 1030.0 hPa ENE 5.8 km/h 6.9 km/h 69 % 0.0 mm
23:54 -1.4 °C -6.4 °C 1030.0 hPa ENE 6.1 km/h 6.9 km/h 69 % 0.0 mm
23:59 -1.6 °C -6.5 °C 1030.0 hPa ENE 6.1 km/h 7.9 km/h 69 % 0.0 mm
Le Gheer Warneton
Courtoisie de Weather Underground - 2.25 mb

Mise a jour : 17-12-17 07:11:12
Généré par Cumulus 1.9.4 (1099)